Wind_Speed
18 19 19 20 21 22 23 24 26 26 26 25 25 26 27 29 31 33 34 35 37 37 37 37 39 39 39 40 41 41 42 43 44 45 46 46 46 46 46 46 46 45 44 45
18 18 18 19 20 20 21 23 24 25 26 26 25 24 25 25 27 29 31 33 34 36 37 37 37 38 38 39 40 40 41 41 42 43 44 45 46 46 46 46 46 45 45 45
17 18 18 19 18 19 20 21 23 23 23 25 26 26 26 25 25 26 27 30 31 33 35 37 37 37 38 38 39 40 40 41 42 43 43 43 44 45 45 45 45 45 44 44
15 17 18 17 17 18 18 19 21 22 22 23 25 25 25 26 26 26 27 28 29 30 32 34 36 36 37 38 39 39 39 40 41 42 42 42 43 43 44 45 45 45 45 45
14 16 16 16 16 16 17 17 19 20 21 21 22 24 24 25 26 27 27 28 29 29 30 32 33 34 36 38 39 39 38 39 39 40 41 41 42 42 43 44 44 44 43 43
14 15 15 14 15 17 18 17 17 18 19 20 20 22 22 24 24 25 26 27 28 28 29 30 31 31 33 35 36 37 37 37 37 38 39 40 40 41 42 42 42 42 42 42
14 14 13 13 14 16 18 18 18 18 19 20 20 21 21 23 23 23 24 25 26 27 28 29 29 29 29 31 33 33 34 35 36 35 36 36 37 38 39 41 41 42 41 41
14 15 14 13 13 14 16 18 19 19 19 19 20 21 21 22 22 22 23 24 24 25 26 27 27 27 27 28 30 31 31 33 33 33 34 34 35 36 37 38 40 40 40 40
14 15 15 14 14 15 16 17 18 19 19 19 19 20 20 21 21 22 22 23 24 24 25 25 26 27 27 27 28 29 30 30 31 33 33 34 34 34 35 36 37 38 39 39
14 14 14 14 14 14 15 16 16 18 19 19 19 19 19 20 21 21 22 23 23 24 24 24 25 26 27 27 27 28 28 29 30 31 32 33 33 34 34 34 36 37 38 38
14 14 14 14 14 14 15 16 16 17 18 19 19 19 19 19 20 21 21 22 23 24 24 24 25 26 27 27 27 28 28 28 29 29 29 31 32 33 33 33 35 36 37 37
13 13 13 13 13 14 15 16 16 17 17 18 19 19 19 19 19 20 21 21 22 23 23 24 25 25 25 26 26 27 27 28 28 29 29 29 30 31 32 32 33 33 34 35
12 13 13 13 13 14 15 16 16 17 17 17 19 19 19 18 19 19 20 21 21 21 22 23 24 24 25 25 26 26 27 27 27 28 28 28 29 30 31 32 32 33 33 33
13 13 13 13 13 14 15 15 16 17 17 17 17 19 19 19 19 20 20 21 21 22 22 23 24 24 24 24 25 25 26 27 27 27 27 28 29 29 30 30 30 30 31 31
14 13 14 14 14 14 15 16 16 17 17 17 17 18 18 19 20 20 20 21 21 22 22 22 23 23 23 23 23 24 24 25 26 26 27 28 28 28 28 28 29 29 29 30
14 15 15 15 15 16 16 17 17 17 17 17 18 18 18 19 19 19 20 20 20 21 21 21 22 23 24 24 23 23 23 24 25 26 26 27 28 28 28 28 28 28 28 29
16 16 17 17 17 17 17 18 18 17 17 18 19 19 19 19 19 20 20 20 21 21 21 21 21 21 23 24 24 24 24 24 25 25 26 26 26 27 27 27 27 27 27 28
18 18 19 19 19 19 19 18 18 18 18 19 19 19 19 19 19 19 20 20 21 21 22 22 22 22 22 23 24 24 25 25 25 25 25 25 26 26 26 26 27 27 27 28
18 18 18 19 18 18 18 18 18 18 19 19 19 19 19 19 19 19 20 20 21 21 22 22 22 23 23 23 24 25 25 25 25 25 25 26 26 26 27 27 27 28 28 28
18 18 18 18 18 18 18 18 18 18 18 18 18 18 18 19 19 20 20 20 20 21 21 21 22 22 23 24 24 25 25 25 25 25 26 26 27 27 28 29 30 30 30 30
18 18 17 17 18 19 19 19 19 18 18 18 17 18 18 18 19 19 19 20 20 20 20 21 22 23 24 24 24 25 26 26 27 27 27 27 27 27 28 29 30 30 31 31
19 18 18 18 18 19 19 19 19 18 18 18 18 18 18 18 18 18 19 20 20 20 21 21 22 23 24 25 25 26 27 27 28 28 28 28 28 28 28 28 28 29 30 31
19 19 19 18 18 18 18 18 18 18 18 18 18 19 19 19 19 19 19 20 20 21 21 22 23 23 24 24 25 26 27 27 28 28 29 29 29 29 29 29 29 30 30 31
19 19 19 19 18 18 18 18 17 17 18 18 18 19 19 19 19 19 19 19 19 19 20 21 22 23 24 24 25 26 27 27 28 29 29 29 29 29 29 30 30 30 30 30
19 18 18 18 18 17 17 17 17 17 17 17 17 17 17 17 17 16 17 17 18 18 19 19 20 21 22 23 24 24 25 25 26 27 27 28 28 29 29 29 29 29 29 30
18 18 18 18 17 17 16 16 16 16 16 16 17 16 16 16 16 16 16 17 17 17 18 18 19 19 19 20 21 21 22 22 23 23 24 25 25 26 27 27 28 28 29 29
18 18 18 17 17 16 16 16 16 16 16 16 16 16 16 16 16 16 16 16 16 16 17 17 17 17 17 18 18 18 19 19 20 21 21 22 22 23 24 25 25 26 26 27
Wind_Direction
257 254 253 251 249 248 248 247 246 246 248 248 251 251 250 249 248 247 246 246 245 245 245 245 244 243 242 243 243 243 244 245 245 245 245 246 247 248 247 246 246 246 246 247
257 254 254 251 248 249 248 249 249 248 248 248 252 251 249 248 249 248 248 248 247 246 245 245 245 243 242 242 243 243 244 245 246 246 246 246 246 246 247 246 245 246 247 247
259 257 256 254 250 250 249 248 250 251 251 252 252 252 250 250 251 250 250 248 247 246 245 244 243 243 244 244 243 243 245 246 247 246 246 246 245 245 245 244 244 246 247 247
264 262 262 258 254 252 253 251 250 251 251 251 252 250 252 253 252 252 251 248 247 247 246 245 243 243 244 243 243 244 245 246 247 246 245 245 245 245 245 244 244 245 247 247
268 266 265 262 258 255 255 253 251 251 252 254 254 251 251 254 255 255 254 252 249 247 248 247 245 245 245 244 244 245 246 247 247 247 246 247 247 246 245 245 244 245 246 246
273 272 271 268 263 258 257 255 252 254 254 255 257 255 253 254 255 255 255 253 249 248 249 248 247 246 246 246 246 245 245 245 246 247 247 247 246 245 245 244 243 245 246 246
271 274 277 277 271 264 261 259 258 258 258 258 259 259 259 257 254 254 254 253 250 249 250 248 247 247 246 247 246 245 244 243 244 245 246 245 244 243 244 245 245 245 246 247
273 274 277 281 275 271 269 264 262 260 258 258 258 258 258 257 255 254 254 252 249 250 251 249 247 246 245 246 245 245 244 244 242 241 242 242 242 243 243 245 245 245 246 246
276 277 276 276 278 275 274 270 266 262 262 262 261 260 259 257 257 257 255 250 249 250 250 249 249 247 245 245 246 245 244 243 241 240 241 242 243 244 244 244 245 245 246 247
281 279 276 274 276 277 275 275 272 267 265 265 265 264 263 259 256 256 255 253 251 248 249 250 248 247 246 246 246 246 246 244 242 240 241 242 243 243 244 243 245 246 247 247
283 282 278 275 273 272 274 277 275 272 268 266 265 265 266 262 258 257 255 254 254 251 249 249 249 248 247 248 247 246 245 243 243 243 242 243 244 244 244 244 246 247 247 247
285 281 280 278 276 274 274 277 276 273 271 268 267 266 264 263 262 260 258 257 255 252 251 251 251 250 249 248 247 246 244 243 244 245 245 245 245 246 246 246 246 247 248 247
283 281 280 279 278 279 281 282 280 276 273 270 267 265 264 264 264 263 260 259 257 256 255 254 252 253 251 248 246 245 244 244 244 245 245 245 245 246 247 247 247 247 248 248
283 282 281 280 280 281 282 284 283 280 276 273 268 264 263 263 263 263 262 260 258 258 258 256 253 252 251 249 246 245 244 244 244 244 244 244 244 246 247 247 247 247 248 248
283 282 282 282 284 284 285 285 284 281 277 272 269 266 265 264 263 263 262 260 259 259 259 257 255 251 248 247 246 246 245 244 244 244 244 244 245 246 247 247 248 248 249 249
283 283 283 285 287 287 288 286 285 281 276 272 269 268 267 266 265 264 263 262 262 261 259 257 255 251 247 245 245 246 246 246 245 246 246 248 247 247 247 248 249 249 249 249
285 282 282 285 286 288 289 287 285 282 277 273 271 270 269 268 266 264 263 263 263 262 261 259 255 252 249 247 246 247 248 248 248 246 246 246 246 247 247 247 247 248 249 250
290 287 284 284 285 287 287 285 284 282 279 277 275 273 271 268 267 265 263 262 261 261 261 259 255 252 250 249 249 250 250 250 250 248 247 246 246 248 248 248 248 249 251 252
297 295 291 289 288 289 288 285 282 282 280 279 278 275 271 269 267 266 265 263 263 263 261 260 257 254 253 252 252 252 251 251 250 250 249 249 249 249 249 249 249 250 252 253
299 298 295 291 290 290 289 287 284 283 281 281 279 277 273 271 270 267 264 265 265 264 262 261 260 257 255 254 254 253 251 251 251 251 251 251 251 251 251 250 251 252 253 254
300 299 297 294 292 291 289 288 286 284 281 281 279 277 275 274 273 270 267 267 267 265 264 263 262 261 259 258 256 255 254 253 253 253 253 253 253 254 254 254 255 255 255 256
300 299 298 297 294 292 290 288 286 283 280 279 279 276 276 275 273 273 271 270 268 267 265 265 264 262 261 260 259 258 257 256 255 254 254 254 255 255 255 256 257 258 258 259
302 300 299 297 295 293 292 290 287 284 282 281 278 276 275 275 274 274 273 272 271 269 267 266 265 264 262 261 260 259 258 257 256 255 255 256 256 256 257 257 258 259 260 261
304 301 300 299 296 294 292 292 290 287 285 284 281 277 276 276 274 274 274 273 272 271 270 268 267 265 263 262 260 259 258 257 256 255 255 255 256 257 258 259 259 260 260 261
310 307 303 301 299 296 292 291 290 289 288 286 284 282 281 280 277 276 276 275 274 273 273 273 271 269 267 264 262 259 257 255 254 254 254 254 255 256 257 258 259 259 259 260
312 310 306 303 300 297 293 291 289 288 288 287 285 283 282 281 281 280 279 279 278 276 275 275 273 270 269 266 263 260 258 256 255 255 255 255 256 256 256 257 258 258 259 261
310 309 308 305 301 298 295 293 291 290 290 288 286 283 281 280 280 280 279 279 279 279 278 277 275 273 271 268 265 262 259 257 255 255 255 256 256 256 257 257 257 258 259 261
Height
5522 5522 5523 5524 5525 5527 5528 5529 5530 5533 5535 5537 5538 5540 5542 5543 5545 5547 5550 5552 5554 5556 5559 5562 5565 5569 5572 5575 5579 5582 5586 5589 5593 5596 5599 5603 5606 5609 5612 5616 5619 5622 5625 5628
5517 5517 5518 5518 5520 5521 5521 5522 5524 5526 5528 5529 5530 5532 5533 5535 5536 5538 5540 5542 5544 5546 5549 5552 5555 5558 5561 5564 5568 5571 5574 5577 5581 5584 5587 5590 5594 5597 5600 5604 5607 5611 5613 5616
5512 5512 5513 5514 5514 5515 5515 5516 5518 5519 5521 5522 5523 5525 5526 5527 5529 5530 5531 5533 5535 5537 5539 5542 5545 5548 5551 5554 5557 5560 5563 5566 5569 5572 5575 5579 5582 5585 5588 5592 5595 5599 5602 5605
5507 5508 5508 5510 5509 5509 5510 5510 5511 5512 5514 5515 5516 5517 5518 5519 5521 5522 5523 5524 5526 5528 5530 5532 5535 5538 5541 5544 5547 5550 5552 5555 5558 5560 5564 5567 5570 5573 5577 5580 5584 5588 5591 5594
5503 5502 5502 5504 5504 5504 5504 5505 5506 5506 5507 5508 5509 5510 5512 5512 5513 5514 5515 5516 5517 5519 5521 5523 5525 5528 5531 5534 5537 5539 5542 5544 5547 5549 5552 5556 5559 5562 5565 5569 5573 5577 5580 5583
5498 5498 5498 5500 5499 5499 5500 5500 5500 5500 5501 5501 5502 5504 5506 5505 5506 5506 5507 5508 5509 5511 5513 5515 5517 5519 5521 5524 5526 5529 5531 5534 5536 5538 5541 5544 5547 5551 5554 5558 5562 5566 5569 5572
5494 5494 5494 5494 5493 5494 5495 5495 5495 5494 5495 5495 5495 5496 5498 5498 5498 5499 5500 5500 5501 5503 5505 5507 5509 5510 5513 5515 5517 5519 5521 5524 5526 5529 5531 5534 5537 5540 5544 5548 5551 5555 5558 5562
5490 5490 5492 5489 5489 5489 5488 5488 5488 5488 5489 5489 5489 5490 5490 5491 5491 5492 5493 5493 5494 5496 5497 5499 5501 5503 5505 5506 5508 5510 5512 5514 5517 5519 5522 5525 5527 5531 5534 5537 5541 5544 5547 5550
5486 5487 5485 5484 5483 5483 5482 5482 5482 5482 5482 5482 5483 5483 5484 5484 5485 5485 5486 5487 5488 5489 5490 5491 5493 5495 5497 5499 5500 5501 5503 5505 5507 5511 5513 5516 5519 5522 5524 5527 5530 5533 5536 5539
5481 5480 5480 5479 5479 5478 5477 5477 5476 5476 5476 5476 5476 5476 5477 5478 5478 5479 5479 5480 5481 5482 5483 5485 5486 5487 5489 5491 5492 5494 5495 5497 5499 5502 5504 5507 5510 5513 5515 5518 5520 5523 5526 5528
5477 5476 5475 5475 5474 5473 5472 5472 5471 5471 5470 5470 5470 5470 5471 5471 5472 5472 5473 5473 5474 5475 5476 5477 5479 5480 5482 5483 5484 5486 5488 5490 5492 5494 5496 5498 5501 5503 5506 5508 5511 5513 5516 5518
5473 5472 5471 5470 5469 5468 5468 5467 5466 5465 5465 5464 5464 5464 5464 5465 5465 5466 5466 5467 5467 5468 5469 5470 5471 5473 5474 5475 5477 5478 5480 5482 5484 5486 5488 5490 5492 5494 5496 5499 5501 5503 5505 5508
5468 5467 5466 5465 5464 5463 5462 5462 5460 5459 5459 5458 5458 5458 5458 5458 5459 5459 5460 5460 5461 5462 5462 5463 5464 5465 5466 5467 5469 5470 5472 5474 5476 5477 5479 5481 5483 5485 5488 5490 5492 5494 5495 5498
5464 5463 5462 5461 5460 5459 5458 5456 5455 5454 5453 5452 5452 5452 5452 5452 5453 5453 5453 5454 5454 5455 5456 5456 5457 5458 5459 5460 5461 5463 5464 5466 5468 5469 5471 5473 5475 5477 5479 5481 5483 5485 5487 5489
5459 5458 5457 5456 5454 5453 5452 5451 5450 5449 5448 5447 5446 5446 5446 5446 5446 5446 5446 5447 5447 5448 5449 5449 5450 5450 5451 5452 5454 5455 5457 5458 5460 5462 5464 5466 5468 5469 5471 5473 5475 5477 5479 5481
5454 5453 5452 5450 5449 5448 5447 5446 5445 5443 5442 5441 5441 5440 5440 5440 5440 5440 5440 5440 5441 5441 5441 5442 5442 5443 5444 5445 5446 5448 5449 5451 5452 5454 5456 5458 5460 5462 5464 5465 5467 5469 5471 5473
5450 5448 5447 5446 5444 5443 5441 5440 5439 5438 5437 5436 5435 5435 5434 5434 5434 5434 5434 5434 5434 5434 5435 5435 5435 5436 5436 5438 5439 5440 5442 5443 5445 5447 5449 5450 5452 5454 5456 5458 5460 5462 5463 5465
5444 5442 5441 5440 5438 5437 5435 5434 5433 5432 5431 5430 5429 5428 5428 5428 5427 5427 5427 5427 5427 5427 5427 5427 5428 5429 5429 5430 5432 5433 5434 5436 5437 5439 5441 5443 5445 5447 5449 5450 5452 5454 5456 5457
5438 5436 5434 5433 5431 5430 5429 5427 5427 5426 5424 5424 5423 5422 5422 5421 5421 5421 5420 5420 5420 5420 5420 5420 5421 5421 5422 5423 5424 5426 5427 5429 5430 5431 5433 5435 5437 5439 5441 5443 5444 5446 5448 5449
5432 5430 5428 5427 5425 5424 5422 5421 5420 5419 5418 5417 5417 5416 5415 5415 5414 5414 5414 5414 5413 5413 5413 5413 5414 5414 5415 5416 5417 5418 5420 5421 5423 5424 5425 5427 5429 5431 5432 5434 5436 5437 5439 5440
5427 5425 5423 5421 5420 5418 5416 5415 5414 5413 5412 5411 5411 5410 5409 5408 5408 5407 5407 5407 5407 5406 5406 5406 5407 5407 5408 5408 5409 5410 5412 5413 5415 5416 5418 5419 5421 5422 5424 5425 5427 5428 5430 5431
5422 5420 5418 5416 5414 5412 5411 5409 5408 5407 5406 5405 5405 5404 5403 5403 5402 5401 5400 5400 5400 5400 5400 5399 5399 5399 5400 5400 5401 5402 5403 5404 5406 5407 5409 5411 5412 5414 5415 5417 5418 5419 5420 5421
5416 5414 5412 5410 5409 5407 5405 5403 5402 5401 5400 5399 5398 5398 5397 5396 5396 5395 5394 5394 5393 5392 5392 5392 5392 5392 5392 5392 5393 5394 5394 5396 5397 5399 5400 5402 5403 5405 5406 5408 5409 5410 5410 5411
5411 5409 5407 5405 5403 5401 5399 5398 5396 5395 5394 5393 5392 5392 5391 5390 5389 5388 5387 5387 5386 5385 5385 5384 5384 5384 5384 5384 5385 5385 5386 5387 5388 5390 5391 5393 5394 5396 5397 5398 5399 5400 5401 5401
5406 5404 5402 5400 5398 5396 5394 5392 5391 5390 5388 5387 5386 5385 5385 5384 5383 5382 5381 5380 5380 5379 5378 5377 5377 5376 5376 5376 5376 5377 5378 5379 5380 5381 5382 5384 5385 5386 5388 5389 5389 5390 5391 5392
5402 5399 5397 5394 5393 5391 5389 5388 5386 5385 5383 5382 5381 5380 5379 5378 5377 5376 5375 5374 5373 5373 5372 5371 5370 5370 5369 5369 5369 5369 5370 5371 5372 5373 5374 5375 5377 5378 5379 5379 5380 5381 5382 5382
5397 5394 5392 5390 5387 5386 5384 5382 5381 5380 5378 5377 5376 5374 5373 5372 5371 5370 5369 5369 5368 5367 5366 5365 5364 5364 5363 5363 5363 5363 5363 5364 5365 5366 5367 5368 5369 5370 5370 5371 5371 5372 5373 5373